QPF
0.00 0.00 0.00 0.00 0.00 0.00 0.00 0.00 0.00 0.00 0.00 0.00 0.00 0.00 0.00 0.00 0.00 0.01 0.00 0.00 0.00 0.00 0.00 0.00 0.00 0.00 0.00 0.00 0.00 0.00 0.00 0.00 0.00 0.00 0.00 0.00 0.00 0.00 0.00 0.00 0.00 0.00 0.00
0.00 0.00 0.00 0.00 0.00 0.00 0.00 0.00 0.00 0.00 0.00 0.00 0.00 0.00 0.00 0.00 0.00 0.01 0.01 0.01 0.01 0.01 0.01 0.00 0.00 0.00 0.00 0.00 0.00 0.00 0.00 0.00 0.00 0.00 0.00 0.00 0.00 0.00 0.00 0.00 0.00 0.00 0.00
0.00 0.00 0.00 0.00 0.00 0.00 0.00 0.00 0.01 0.01 0.01 0.01 0.01 0.01 0.01 0.01 0.01 0.01 0.01 0.01 0.01 0.01 0.01 0.01 0.00 0.01 0.01 0.01 0.01 0.01 0.01 0.00 0.00 0.00 0.00 0.00 0.00 0.00 0.00 0.00 0.00 0.00 0.00
0.00 0.00 0.00 0.00 0.00 0.00 0.00 0.01 0.01 0.01 0.01 0.01 0.01 0.01 0.01 0.01 0.01 0.01 0.01 0.01 0.01 0.00 0.01 0.00 0.00 0.00 0.01 0.01 0.00 0.00 0.00 0.00 0.00 0.00 0.00 0.00 0.00 0.00 0.00 0.00 0.00 0.00 0.00
0.00 0.00 0.00 0.00 0.00 0.00 0.00 0.01 0.01 0.01 0.01 0.01 0.01 0.01 0.01 0.01 0.01 0.01 0.01 0.01 0.01 0.01 0.01 0.01 0.01 0.01 0.01 0.00 0.00 0.00 0.00 0.00 0.00 0.00 0.00 0.00 0.00 0.00 0.00 0.00 0.00 0.00 0.00
0.00 0.00 0.00 0.00 0.00 0.00 0.00 0.00 0.01 0.01 0.01 0.02 0.02 0.02 0.02 0.02 0.03 0.03 0.02 0.01 0.02 0.01 0.01 0.01 0.01 0.02 0.01 0.01 0.00 0.00 0.00 0.00 0.00 0.00 0.00 0.00 0.00 0.00 0.00 0.00 0.00 0.00 0.00
0.00 0.00 0.00 0.00 0.00 0.00 0.00 0.00 0.01 0.01 0.01 0.02 0.02 0.02 0.02 0.03 0.04 0.03 0.03 0.02 0.02 0.02 0.02 0.02 0.02 0.01 0.01 0.01 0.01 0.01 0.00 0.00 0.00 0.00 0.00 0.00 0.00 0.00 0.00 0.00 0.00 0.00 0.00
0.00 0.00 0.00 0.00 0.00 0.00 0.00 0.00 0.01 0.01 0.01 0.01 0.01 0.01 0.02 0.03 0.05 0.04 0.04 0.02 0.02 0.02 0.02 0.01 0.01 0.01 0.01 0.01 0.01 0.01 0.00 0.00 0.00 0.00 0.00 0.00 0.00 0.00 0.00 0.00 0.00 0.00 0.00
0.00 0.00 0.00 0.00 0.00 0.00 0.00 0.00 0.00 0.01 0.01 0.01 0.01 0.01 0.02 0.02 0.04 0.04 0.04 0.02 0.02 0.02 0.02 0.01 0.01 0.01 0.01 0.01 0.01 0.00 0.00 0.00 0.00 0.00 0.00 0.00 0.00 0.00 0.00 0.00 0.00 0.00 0.00
0.00 0.00 0.00 0.00 0.00 0.00 0.00 0.00 0.00 0.01 0.01 0.01 0.01 0.01 0.02 0.02 0.04 0.04 0.03 0.02 0.02 0.02 0.02 0.02 0.02 0.01 0.01 0.01 0.00 0.00 0.00 0.00 0.00 0.00 0.00 0.00 0.00 0.00 0.00 0.00 0.00 0.00 0.00
0.00 0.00 0.00 0.00 0.00 0.00 0.00 0.00 0.00 0.00 0.01 0.01 0.01 0.02 0.02 0.02 0.04 0.04 0.03 0.01 0.01 0.01 0.01 0.01 0.01 0.01 0.01 0.01 0.00 0.00 0.00 0.00 0.00 0.00 0.00 0.00 0.00 0.00 0.00 0.00 0.00 0.00 0.00
0.00 0.00 0.00 0.00 0.00 0.00 0.00 0.00 0.00 0.01 0.01 0.01 0.01 0.01 0.01 0.02 0.02 0.02 0.02 0.01 0.01 0.01 0.01 0.01 0.01 0.01 0.01 0.01 0.01 0.00 0.01 0.01 0.01 0.01 0.01 0.00 0.00 0.00 0.00 0.00 0.00 0.00 0.00
0.00 0.00 0.00 0.00 0.00 0.00 0.00 0.00 0.00 0.01 0.01 0.01 0.01 0.01 0.01 0.01 0.01 0.02 0.02 0.01 0.01 0.01 0.01 0.01 0.01 0.02 0.01 0.01 0.01 0.01 0.01 0.01 0.01 0.01 0.00 0.00 0.00 0.00 0.00 0.00 0.00 0.00 0.00
0.00 0.00 0.00 0.00 0.00 0.00 0.00 0.00 0.00 0.00 0.00 0.00 0.00 0.01 0.01 0.01 0.01 0.01 0.01 0.01 0.01 0.01 0.01 0.01 0.01 0.01 0.01 0.01 0.01 0.01 0.01 0.01 0.01 0.00 0.00 0.00 0.00 0.00 0.00 0.00 0.00 0.00 0.00
0.00 0.00 0.00 0.00 0.00 0.00 0.00 0.00 0.00 0.00 0.00 0.00 0.00 0.00 0.00 0.01 0.01 0.01 0.02 0.01 0.01 0.02 0.02 0.02 0.02 0.02 0.02 0.02 0.02 0.02 0.01 0.01 0.01 0.00 0.00 0.00 0.00 0.00 0.00 0.00 0.00 0.00 0.00
0.00 0.00 0.00 0.00 0.00 0.00 0.00 0.00 0.00 0.00 0.00 0.00 0.00 0.00 0.01 0.01 0.01 0.02 0.02 0.01 0.01 0.02 0.02 0.02 0.02 0.02 0.02 0.02 0.02 0.02 0.02 0.01 0.01 0.01 0.01 0.01 0.00 0.00 0.00 0.00 0.00 0.00 0.00
0.00 0.00 0.00 0.00 0.00 0.00 0.00 0.00 0.00 0.00 0.00 0.00 0.00 0.01 0.01 0.01 0.01 0.01 0.01 0.01 0.02 0.02 0.02 0.01 0.02 0.02 0.02 0.02 0.02 0.02 0.02 0.01 0.01 0.01 0.01 0.01 0.01 0.01 0.01 0.00 0.00 0.00 0.00
0.00 0.00 0.00 0.00 0.00 0.00 0.00 0.00 0.00 0.00 0.00 0.00 0.00 0.01 0.01 0.01 0.01 0.01 0.01 0.02 0.02 0.02 0.02 0.02 0.02 0.02 0.02 0.02 0.02 0.02 0.02 0.02 0.02 0.01 0.01 0.01 0.01 0.01 0.01 0.01 0.00 0.00 0.00
0.00 0.00 0.00 0.00 0.00 0.00 0.00 0.00 0.00 0.00 0.00 0.00 0.01 0.01 0.01 0.01 0.01 0.02 0.02 0.02 0.02 0.02 0.02 0.02 0.02 0.02 0.02 0.02 0.02 0.02 0.02 0.02 0.01 0.01 0.01 0.01 0.01 0.01 0.01 0.01 0.01 0.01 0.00
0.00 0.00 0.00 0.00 0.00 0.00 0.00 0.00 0.00 0.00 0.00 0.01 0.01 0.01 0.01 0.02 0.02 0.02 0.02 0.02 0.02 0.02 0.02 0.02 0.03 0.03 0.03 0.03 0.03 0.02 0.02 0.02 0.02 0.02 0.01 0.01 0.01 0.01 0.01 0.01 0.01 0.01 0.01
0.00 0.00 0.00 0.00 0.00 0.00 0.00 0.00 0.00 0.00 0.00 0.01 0.01 0.01 0.02 0.02 0.02 0.02 0.02 0.02 0.02 0.02 0.02 0.03 0.03 0.03 0.03 0.03 0.03 0.03 0.02 0.02 0.02 0.02 0.02 0.02 0.02 0.01 0.01 0.01 0.01 0.01 0.01
0.00 0.00 0.00 0.00 0.00 0.00 0.00 0.00 0.00 0.00 0.01 0.01 0.01 0.01 0.02 0.02 0.02 0.02 0.02 0.02 0.02 0.02 0.03 0.03 0.03 0.03 0.02 0.02 0.03 0.03 0.02 0.02 0.02 0.02 0.02 0.02 0.02 0.02 0.02 0.02 0.02 0.02 0.02
0.00 0.00 0.00 0.00 0.00 0.00 0.00 0.00 0.00 0.00 0.01 0.01 0.01 0.01 0.01 0.01 0.01 0.01 0.02 0.02 0.02 0.03 0.03 0.03 0.03 0.02 0.02 0.02 0.02 0.02 0.02 0.02 0.02 0.02 0.02 0.02 0.02 0.02 0.02 0.02 0.02 0.02 0.02
0.00 0.00 0.00 0.00 0.00 0.00 0.00 0.00 0.00 0.00 0.00 0.00 0.00 0.01 0.01 0.01 0.01 0.01 0.01 0.01 0.02 0.02 0.02 0.02 0.02 0.02 0.02 0.02 0.02 0.02 0.02 0.02 0.02 0.02 0.02 0.02 0.02 0.02 0.02 0.02 0.02 0.02 0.02
0.00 0.00 0.00 0.00 0.00 0.00 0.00 0.00 0.00 0.00 0.00 0.00 0.00 0.00 0.00 0.00 0.00 0.00 0.00 0.01 0.01 0.01 0.01 0.01 0.01 0.01 0.01 0.01 0.02 0.01 0.02 0.02 0.03 0.03 0.03 0.03 0.03 0.02 0.02 0.02 0.02 0.02 0.02
0.00 0.00 0.00 0.00 0.00 0.00 0.00 0.00 0.00 0.00 0.00 0.00 0.00 0.00 0.00 0.00 0.00 0.00 0.00 0.00 0.00 0.00 0.00 0.00 0.00 0.01 0.01 0.01 0.01 0.01 0.02 0.02 0.03 0.03 0.03 0.04 0.03 0.03 0.03 0.03 0.03 0.03 0.03
MSLP
1008.91 1009.19 1009.54 1009.93 1010.33 1010.75 1011.18 1011.64 1012.14 1012.69 1013.31 1013.99 1014.72 1015.50 1016.28 1017.07 1017.84 1018.59 1019.32 1020.04 1020.75 1021.46 1022.20 1022.94 1023.69 1024.43 1025.15 1025.85 1026.50 1027.11 1027.68 1028.23 1028.74 1029.24 1029.70 1030.11 1030.47 1030.74 1030.91 1030.97 1030.93 1030.80 1030.61
1008.24 1008.42 1008.66 1008.95 1009.29 1009.67 1010.10 1010.58 1011.11 1011.72 1012.39 1013.11 1013.89 1014.69 1015.50 1016.30 1017.09 1017.86 1018.61 1019.37 1020.13 1020.91 1021.70 1022.50 1023.29 1024.06 1024.80 1025.50 1026.15 1026.75 1027.32 1027.87 1028.40 1028.91 1029.40 1029.86 1030.25 1030.55 1030.75 1030.84 1030.80 1030.68 1030.48
1007.77 1007.87 1008.02 1008.25 1008.53 1008.87 1009.28 1009.77 1010.33 1010.97 1011.68 1012.44 1013.23 1014.03 1014.83 1015.61 1016.38 1017.14 1017.89 1018.66 1019.44 1020.26 1021.09 1021.93 1022.77 1023.59 1024.36 1025.08 1025.75 1026.37 1026.96 1027.52 1028.07 1028.61 1029.13 1029.62 1030.04 1030.38 1030.60 1030.70 1030.68 1030.56 1030.36
1007.49 1007.54 1007.65 1007.81 1008.05 1008.36 1008.77 1009.26 1009.84 1010.49 1011.22 1011.98 1012.76 1013.54 1014.30 1015.04 1015.76 1016.47 1017.18 1017.93 1018.71 1019.54 1020.40 1021.28 1022.16 1023.02 1023.83 1024.59 1025.30 1025.95 1026.57 1027.16 1027.74 1028.31 1028.86 1029.38 1029.83 1030.19 1030.44 1030.56 1030.56 1030.46 1030.28
1007.37 1007.42 1007.51 1007.66 1007.87 1008.16 1008.56 1009.05 1009.63 1010.29 1011.00 1011.75 1012.50 1013.22 1013.92 1014.59 1015.23 1015.88 1016.54 1017.24 1018.00 1018.81 1019.68 1020.58 1021.49 1022.39 1023.25 1024.05 1024.80 1025.49 1026.15 1026.78 1027.39 1027.99 1028.58 1029.12 1029.60 1029.99 1030.27 1030.43 1030.46 1030.39 1030.24
1007.40 1007.49 1007.59 1007.74 1007.95 1008.25 1008.63 1009.11 1009.69 1010.33 1011.02 1011.72 1012.42 1013.08 1013.70 1014.28 1014.84 1015.40 1015.99 1016.64 1017.35 1018.14 1019.00 1019.91 1020.84 1021.76 1022.65 1023.49 1024.27 1025.01 1025.70 1026.37 1027.01 1027.64 1028.26 1028.83 1029.34 1029.77 1030.09 1030.30 1030.38 1030.36 1030.25
1007.56 1007.71 1007.86 1008.03 1008.26 1008.55 1008.94 1009.41 1009.96 1010.57 1011.21 1011.86 1012.48 1013.06 1013.59 1014.09 1014.57 1015.05 1015.57 1016.16 1016.83 1017.59 1018.43 1019.33 1020.26 1021.19 1022.10 1022.96 1023.77 1024.53 1025.25 1025.94 1026.61 1027.27 1027.91 1028.52 1029.07 1029.54 1029.91 1030.17 1030.32 1030.36 1030.32
1007.84 1008.06 1008.26 1008.47 1008.72 1009.03 1009.41 1009.86 1010.38 1010.94 1011.52 1012.09 1012.64 1013.13 1013.58 1014.00 1014.41 1014.83 1015.30 1015.84 1016.48 1017.21 1018.02 1018.90 1019.82 1020.74 1021.64 1022.50 1023.31 1024.08 1024.82 1025.53 1026.22 1026.90 1027.57 1028.21 1028.79 1029.31 1029.74 1030.06 1030.27 1030.38 1030.41
1008.21 1008.49 1008.75 1009.00 1009.27 1009.59 1009.95 1010.38 1010.85 1011.35 1011.86 1012.35 1012.82 1013.24 1013.62 1013.97 1014.32 1014.70 1015.14 1015.66 1016.28 1016.99 1017.78 1018.64 1019.53 1020.43 1021.30 1022.15 1022.95 1023.71 1024.44 1025.15 1025.86 1026.55 1027.24 1027.90 1028.53 1029.08 1029.56 1029.94 1030.22 1030.40 1030.49
1008.66 1008.98 1009.28 1009.56 1009.85 1010.16 1010.51 1010.89 1011.30 1011.74 1012.17 1012.58 1012.97 1013.32 1013.64 1013.95 1014.28 1014.65 1015.08 1015.60 1016.22 1016.92 1017.70 1018.53 1019.39 1020.25 1021.10 1021.90 1022.68 1023.42 1024.13 1024.84 1025.54 1026.24 1026.94 1027.62 1028.27 1028.86 1029.37 1029.80 1030.13 1030.37 1030.53
1009.15 1009.49 1009.80 1010.09 1010.38 1010.68 1011.00 1011.34 1011.69 1012.05 1012.40 1012.74 1013.05 1013.34 1013.62 1013.92 1014.24 1014.62 1015.07 1015.61 1016.24 1016.95 1017.72 1018.53 1019.36 1020.18 1020.98 1021.75 1022.48 1023.19 1023.88 1024.57 1025.27 1025.97 1026.67 1027.36 1028.01 1028.62 1029.16 1029.62 1029.99 1030.28 1030.48
1009.65 1009.98 1010.27 1010.56 1010.83 1011.11 1011.40 1011.69 1011.98 1012.27 1012.54 1012.80 1013.05 1013.29 1013.55 1013.84 1014.17 1014.58 1015.06 1015.64 1016.29 1017.01 1017.78 1018.58 1019.38 1020.16 1020.91 1021.63 1022.32 1022.99 1023.66 1024.32 1025.00 1025.69 1026.39 1027.08 1027.74 1028.35 1028.90 1029.38 1029.77 1030.08 1030.32
1010.14 1010.42 1010.69 1010.95 1011.20 1011.46 1011.70 1011.94 1012.18 1012.39 1012.60 1012.79 1012.98 1013.19 1013.43 1013.72 1014.07 1014.51 1015.03 1015.64 1016.32 1017.06 1017.82 1018.60 1019.37 1020.11 1020.81 1021.49 1022.13 1022.77 1023.40 1024.04 1024.70 1025.38 1026.07 1026.75 1027.40 1028.01 1028.56 1029.05 1029.45 1029.78 1030.04
1010.62 1010.83 1011.05 1011.27 1011.50 1011.72 1011.93 1012.12 1012.30 1012.46 1012.60 1012.74 1012.89 1013.06 1013.28 1013.57 1013.93 1014.39 1014.94 1015.58 1016.27 1017.01 1017.77 1018.53 1019.26 1019.95 1020.61 1021.24 1021.84 1022.44 1023.04 1023.67 1024.31 1024.98 1025.65 1026.32 1026.97 1027.57 1028.12 1028.60 1029.01 1029.36 1029.64
1011.07 1011.21 1011.38 1011.56 1011.75 1011.94 1012.12 1012.27 1012.41 1012.52 1012.61 1012.70 1012.80 1012.94 1013.13 1013.41 1013.78 1014.24 1014.80 1015.43 1016.13 1016.85 1017.59 1018.30 1018.99 1019.64 1020.25 1020.83 1021.39 1021.96 1022.54 1023.14 1023.77 1024.42 1025.09 1025.75 1026.40 1027.00 1027.55 1028.03 1028.46 1028.82 1029.12
1011.52 1011.59 1011.70 1011.84 1012.00 1012.17 1012.32 1012.45 1012.55 1012.62 1012.67 1012.71 1012.77 1012.87 1013.03 1013.28 1013.62 1014.06 1014.59 1015.20 1015.86 1016.55 1017.24 1017.91 1018.54 1019.13 1019.69 1020.23 1020.75 1021.28 1021.84 1022.42 1023.04 1023.69 1024.36 1025.02 1025.66 1026.27 1026.83 1027.34 1027.78 1028.17 1028.51
1011.99 1012.00 1012.07 1012.18 1012.31 1012.45 1012.58 1012.69 1012.76 1012.80 1012.81 1012.81 1012.83 1012.88 1013.00 1013.20 1013.50 1013.89 1014.37 1014.91 1015.51 1016.14 1016.75 1017.35 1017.92 1018.45 1018.95 1019.44 1019.93 1020.43 1020.96 1021.53 1022.14 1022.79 1023.45 1024.12 1024.77 1025.40 1025.98 1026.51 1027.00 1027.43 1027.82
1012.50 1012.48 1012.50 1012.58 1012.69 1012.82 1012.94 1013.02 1013.07 1013.09 1013.07 1013.03 1013.00 1013.00 1013.06 1013.20 1013.43 1013.74 1014.14 1014.61 1015.12 1015.65 1016.18 1016.70 1017.18 1017.65 1018.09 1018.53 1018.98 1019.45 1019.96 1020.51 1021.11 1021.74 1022.41 1023.08 1023.75 1024.40 1025.01 1025.58 1026.11 1026.60 1027.05
1013.08 1013.02 1013.02 1013.08 1013.18 1013.29 1013.39 1013.46 1013.50 1013.49 1013.44 1013.37 1013.29 1013.24 1013.24 1013.31 1013.45 1013.67 1013.97 1014.34 1014.74 1015.17 1015.60 1016.02 1016.42 1016.81 1017.19 1017.58 1017.98 1018.42 1018.90 1019.43 1020.01 1020.63 1021.29 1021.96 1022.64 1023.30 1023.95 1024.56 1025.15 1025.70 1026.22
1013.71 1013.64 1013.63 1013.67 1013.75 1013.85 1013.94 1014.00 1014.01 1013.99 1013.91 1013.81 1013.70 1013.60 1013.54 1013.53 1013.59 1013.72 1013.91 1014.16 1014.45 1014.77 1015.09 1015.42 1015.74 1016.05 1016.36 1016.69 1017.05 1017.44 1017.89 1018.38 1018.93 1019.53 1020.17 1020.83 1021.50 1022.17 1022.83 1023.48 1024.11 1024.72 1025.31
1014.39 1014.32 1014.30 1014.33 1014.40 1014.48 1014.55 1014.60 1014.61 1014.56 1014.48 1014.36 1014.22 1014.08 1013.97 1013.89 1013.87 1013.91 1014.00 1014.14 1014.32 1014.53 1014.75 1014.98 1015.21 1015.45 1015.70 1015.97 1016.27 1016.61 1017.01 1017.46 1017.96 1018.52 1019.11 1019.74 1020.38 1021.04 1021.70 1022.37 1023.03 1023.68 1024.33
1015.10 1015.03 1015.00 1015.02 1015.08 1015.14 1015.21 1015.24 1015.24 1015.19 1015.10 1014.97 1014.82 1014.66 1014.51 1014.38 1014.30 1014.26 1014.27 1014.31 1014.40 1014.51 1014.63 1014.77 1014.92 1015.08 1015.26 1015.47 1015.71 1016.00 1016.33 1016.72 1017.16 1017.65 1018.18 1018.75 1019.34 1019.96 1020.60 1021.26 1021.92 1022.60 1023.29
1015.81 1015.74 1015.71 1015.72 1015.75 1015.81 1015.86 1015.89 1015.89 1015.84 1015.76 1015.64 1015.49 1015.32 1015.15 1015.00 1014.88 1014.78 1014.72 1014.69 1014.69 1014.71 1014.75 1014.81 1014.88 1014.97 1015.08 1015.22 1015.40 1015.61 1015.87 1016.18 1016.54 1016.95 1017.40 1017.89 1018.42 1018.98 1019.57 1020.19 1020.84 1021.51 1022.22
1016.50 1016.42 1016.38 1016.37 1016.40 1016.44 1016.48 1016.51 1016.51 1016.48 1016.42 1016.31 1016.18 1016.03 1015.87 1015.71 1015.56 1015.42 1015.31 1015.22 1015.16 1015.11 1015.08 1015.06 1015.06 1015.08 1015.12 1015.19 1015.29 1015.43 1015.61 1015.83 1016.10 1016.42 1016.78 1017.18 1017.62 1018.10 1018.63 1019.19 1019.81 1020.46 1021.15
1017.12 1017.04 1016.98 1016.96 1016.97 1017.00 1017.04 1017.07 1017.09 1017.08 1017.04 1016.97 1016.87 1016.74 1016.59 1016.44 1016.28 1016.12 1015.98 1015.84 1015.72 1015.61 1015.52 1015.43 1015.36 1015.31 1015.28 1015.28 1015.30 1015.37 1015.47 1015.61 1015.79 1016.01 1016.28 1016.59 1016.95 1017.35 1017.81 1018.31 1018.87 1019.48 1020.15
1017.66 1017.57 1017.50 1017.47 1017.46 1017.49 1017.52 1017.56 1017.59 1017.61 1017.60 1017.56 1017.49 1017.39 1017.26 1017.12 1016.96 1016.79 1016.62 1016.45 1016.28 1016.12 1015.96 1015.82 1015.69 1015.57 1015.47 1015.40 1015.35 1015.34 1015.36 1015.42 1015.52 1015.67 1015.86 1016.10 1016.39 1016.73 1017.12 1017.57 1018.08 1018.64 1019.27
Thickness
5674 5673 5671 5670 5668 5664 5662 5660 5657 5654 5651 5647 5641 5635 5630 5625 5619 5613 5608 5601 5595 5588 5581 5575 5568 5561 5553 5546 5539 5532 5525 5517 5506 5496 5488 5478 5471 5463 5456 5449 5442 5435 5428
5665 5664 5664 5662 5660 5657 5656 5654 5650 5647 5643 5639 5634 5628 5623 5617 5612 5607 5601 5594 5587 5580 5573 5565 5558 5551 5544 5536 5529 5522 5514 5507 5498 5486 5476 5467 5460 5453 5445 5438 5432 5425 5418
5653 5652 5652 5652 5651 5650 5648 5646 5642 5639 5634 5630 5625 5620 5614 5608 5603 5598 5593 5586 5580 5574 5566 5558 5550 5541 5534 5526 5519 5511 5503 5495 5487 5477 5465 5457 5449 5442 5435 5428 5421 5414 5407
5639 5639 5639 5639 5639 5638 5637 5634 5632 5628 5624 5620 5615 5610 5605 5599 5594 5588 5582 5575 5569 5563 5557 5550 5542 5534 5527 5517 5509 5501 5491 5482 5473 5464 5454 5446 5438 5431 5424 5416 5409 5403 5396
5625 5625 5625 5625 5624 5623 5621 5619 5617 5614 5612 5608 5603 5598 5593 5588 5583 5578 5572 5565 5558 5551 5544 5538 5531 5524 5518 5509 5501 5491 5481 5471 5461 5451 5443 5435 5427 5420 5413 5406 5398 5391 5386
5611 5610 5610 5608 5607 5606 5605 5602 5600 5597 5594 5590 5587 5583 5579 5576 5571 5566 5561 5554 5547 5540 5532 5524 5517 5510 5504 5496 5489 5481 5472 5462 5452 5443 5434 5427 5420 5412 5403 5395 5387 5380 5373
5596 5594 5592 5591 5590 5588 5587 5585 5582 5580 5577 5574 5570 5567 5564 5562 5558 5552 5546 5540 5534 5528 5521 5512 5504 5497 5490 5483 5474 5466 5458 5450 5444 5436 5427 5419 5410 5403 5393 5385 5376 5368 5362
5580 5578 5576 5575 5573 5571 5570 5568 5565 5563 5560 5558 5555 5552 5548 5546 5542 5537 5531 5525 5519 5513 5507 5501 5494 5485 5478 5470 5461 5452 5444 5438 5431 5424 5417 5409 5400 5391 5383 5374 5365 5357 5349
5566 5564 5562 5560 5559 5557 5554 5552 5549 5547 5544 5541 5538 5535 5532 5529 5526 5522 5516 5509 5503 5497 5491 5485 5479 5472 5466 5458 5449 5440 5431 5424 5417 5410 5403 5395 5386 5378 5370 5360 5351 5342 5336
5552 5550 5548 5546 5544 5542 5540 5536 5533 5531 5529 5525 5522 5519 5517 5514 5511 5506 5501 5495 5488 5481 5475 5469 5465 5459 5453 5446 5438 5430 5421 5414 5405 5397 5389 5381 5373 5365 5358 5349 5341 5330 5323
5538 5536 5534 5531 5530 5527 5525 5521 5518 5516 5513 5510 5507 5503 5500 5498 5496 5491 5487 5481 5476 5469 5463 5456 5451 5446 5440 5434 5427 5419 5412 5403 5393 5384 5375 5368 5360 5352 5344 5337 5329 5321 5312
5523 5521 5519 5517 5515 5513 5510 5507 5504 5501 5498 5494 5491 5487 5484 5482 5480 5476 5472 5467 5462 5456 5451 5446 5439 5433 5426 5420 5413 5406 5398 5389 5379 5371 5363 5356 5348 5341 5333 5325 5317 5309 5301
5508 5506 5504 5502 5499 5498 5496 5493 5489 5486 5484 5481 5477 5474 5469 5466 5464 5461 5457 5452 5447 5442 5437 5432 5425 5419 5413 5406 5399 5392 5384 5375 5367 5359 5353 5346 5339 5331 5321 5312 5303 5295 5287
5493 5490 5489 5487 5485 5483 5480 5478 5475 5473 5470 5467 5464 5461 5456 5452 5449 5446 5442 5438 5432 5427 5421 5416 5410 5404 5397 5391 5384 5377 5370 5363 5356 5349 5342 5334 5326 5317 5308 5299 5290 5281 5273
5478 5475 5474 5472 5470 5468 5465 5463 5460 5459 5457 5454 5451 5448 5445 5441 5438 5435 5430 5424 5419 5413 5407 5400 5394 5388 5382 5375 5368 5362 5355 5348 5342 5335 5328 5320 5312 5303 5295 5286 5277 5268 5260
5463 5461 5458 5457 5454 5452 5449 5446 5446 5444 5442 5440 5437 5434 5431 5429 5425 5421 5416 5411 5406 5400 5393 5387 5382 5376 5370 5364 5357 5350 5343 5335 5329 5321 5314 5307 5299 5291 5282 5273 5264 5255 5248
5447 5445 5442 5440 5438 5436 5433 5431 5428 5426 5426 5424 5422 5419 5416 5413 5410 5406 5402 5396 5391 5386 5379 5375 5369 5363 5358 5351 5344 5338 5331 5323 5316 5308 5300 5293 5285 5277 5268 5260 5251 5243 5236
5429 5427 5426 5424 5422 5420 5417 5415 5412 5409 5406 5404 5404 5403 5401 5398 5395 5391 5386 5381 5375 5371 5365 5360 5355 5350 5344 5338 5331 5324 5317 5309 5301 5294 5286 5279 5270 5263 5255 5247 5240 5231 5224
5412 5410 5408 5407 5405 5403 5400 5398 5396 5393 5390 5387 5385 5384 5382 5380 5377 5374 5370 5365 5361 5356 5351 5346 5340 5335 5329 5323 5317 5310 5303 5296 5288 5280 5273 5265 5257 5249 5242 5235 5227 5219 5211
5392 5391 5390 5388 5387 5384 5382 5380 5377 5375 5373 5370 5368 5365 5363 5360 5357 5354 5351 5347 5343 5339 5334 5329 5324 5318 5312 5307 5301 5294 5287 5280 5272 5265 5258 5250 5242 5235 5228 5221 5213 5206 5199
5373 5371 5370 5368 5366 5364 5362 5360 5358 5356 5353 5351 5349 5347 5346 5341 5338 5335 5332 5328 5324 5320 5315 5310 5305 5299 5293 5287 5281 5275 5269 5263 5256 5249 5242 5235 5227 5219 5213 5206 5199 5191 5184
5352 5350 5348 5347 5345 5342 5341 5339 5337 5335 5332 5330 5328 5325 5325 5320 5317 5314 5311 5307 5303 5298 5293 5289 5284 5279 5274 5268 5262 5256 5250 5244 5238 5231 5225 5218 5211 5203 5196 5189 5183 5176 5169
5330 5328 5326 5324 5322 5320 5318 5316 5314 5312 5309 5307 5304 5302 5299 5297 5294 5290 5287 5283 5280 5276 5271 5267 5263 5258 5252 5247 5242 5236 5231 5226 5220 5214 5207 5201 5195 5188 5181 5175 5168 5162 5155
5306 5304 5303 5301 5299 5297 5295 5292 5290 5288 5286 5283 5280 5277 5275 5272 5269 5266 5263 5259 5256 5252 5248 5244 5240 5235 5231 5226 5220 5215 5210 5206 5200 5194 5189 5184 5179 5172 5166 5160 5154 5148 5142
5282 5280 5278 5276 5274 5272 5270 5268 5266 5263 5261 5259 5256 5253 5250 5247 5245 5241 5238 5235 5232 5228 5224 5220 5216 5212 5208 5203 5199 5195 5190 5185 5181 5176 5171 5166 5162 5156 5151 5145 5140 5133 5128
5258 5256 5254 5251 5249 5247 5245 5243 5241 5239 5236 5234 5231 5228 5225 5223 5220 5217 5214 5211 5208 5204 5200 5197 5193 5189 5185 5181 5178 5174 5170 5166 5162 5158 5153 5149 5144 5140 5135 5130 5124 5119 5113